Date String (YYYY-MM-DD hh:mm:ss) UTC,Instrument flags,Ambient pressure (hPa),Sample flow (lpm),Bypass flow (lpm),Sample temperature (°C),Ambient temperature (°C),ASC tube jacket temperature (°C),LED temperature (°C),Box temperature (°C),Sample RH (%),Span deviation,Mass concentration (μg/m³),Mass concentration (μg/m³),Mass concentration (μg/m³)
DateTimeUTC,F1_M11,P_M11,Q1_M11,Q2_M11,T1_M11,T2_M11,T3_M11,T4_M11,T5_M11,U1_M11,ZSPAN_M11,X0_M11,X2_M11,X1_M11
2021-10-09 01:00:00,,0824.0,4.99,0.00,29.8,28.9,00.0,38.7,31.6,19.7,0000.0,0007.93,0002.20,0001.60
2021-10-09 01:01:00,,0824.0,5.01,0.00,29.8,28.9,00.0,38.7,31.7,19.7,0000.0,0007.79,0002.16,0001.59
2021-10-09 01:02:00,,0823.9,4.99,0.00,29.8,28.7,00.0,38.8,31.6,19.7,0000.0,0007.70,0002.13,0001.59
2021-10-09 01:03:00,,0824.0,5.01,0.00,29.7,26.8,00.0,38.7,31.1,19.8,0000.0,0007.77,0002.16,0001.58
2021-10-09 01:04:00,,0824.0,4.99,0.00,29.6,26.1,00.0,38.7,30.9,20.0,0000.0,0007.39,0002.14,0001.57
2021-10-09 01:05:00,,0824.0,5.00,0.00,29.5,26.4,00.0,38.7,30.9,20.1,0000.0,0007.27,0002.10,0001.56
2021-10-09 01:06:00,,0824.1,5.00,0.00,29.4,26.8,00.0,38.6,31.0,20.2,0000.0,0006.07,0002.11,0001.56
2021-10-09 01:07:00,,0824.1,4.99,0.00,29.4,27.1,00.0,38.6,31.0,20.3,0000.0,0005.39,0002.11,0001.56
2021-10-09 01:08:00,,0824.2,5.00,0.00,29.4,27.5,00.0,38.6,31.1,20.3,0000.0,0003.75,0002.07,0001.57
2021-10-09 01:09:00,,0824.2,4.99,0.00,29.4,27.8,00.0,38.6,31.2,20.4,0000.0,0003.62,0002.02,0001.55
2021-10-09 01:10:00,,0824.3,5.01,0.00,29.4,28.0,00.0,38.6,31.2,20.6,0000.0,0003.53,0002.01,0001.55
2021-10-09 01:11:00,,0824.3,4.99,0.00,29.5,28.1,00.0,38.6,31.3,20.8,0000.0,0003.44,0002.04,0001.57
2021-10-09 01:12:00,,0824.3,5.02,0.00,29.5,28.3,00.0,38.6,31.3,20.9,0000.0,0003.45,0002.08,0001.60
2021-10-09 01:13:00,,0824.2,4.99,0.00,29.5,28.4,00.0,38.6,31.4,21.0,0000.0,0004.13,0002.14,0001.61
2021-10-09 01:14:00,,0824.1,5.01,0.00,29.6,28.5,00.0,38.6,31.4,20.9,0000.0,0003.84,0002.11,0001.62
2021-10-09 01:15:00,,0824.1,4.99,0.00,29.6,28.6,00.0,38.6,31.4,20.9,0000.0,0003.73,0002.11,0001.63
2021-10-09 01:16:00,,0824.2,5.01,0.00,29.6,28.7,00.0,38.6,31.5,20.9,0000.0,0005.15,0002.18,0001.65
2021-10-09 01:17:00,,0824.3,5.00,0.00,29.7,28.7,00.0,38.6,31.5,20.8,0000.0,0005.40,0002.21,0001.66
2021-10-09 01:18:00,,0824.3,5.00,0.00,29.7,28.8,00.0,38.7,31.5,20.8,0000.0,0005.51,0002.22,0001.67
2021-10-09 01:19:00,,0824.3,5.02,0.00,29.7,28.8,00.0,38.7,31.6,20.7,0000.0,0006.06,0002.22,0001.67
2021-10-09 01:20:00,,0824.3,4.99,0.00,29.7,28.9,00.0,38.7,31.6,20.7,0000.0,0006.22,0002.25,0001.69
2021-10-09 01:21:00,,0824.1,5.01,0.00,29.8,28.9,00.0,38.7,31.6,20.7,0000.0,0006.27,0002.24,0001.69
2021-10-09 01:22:00,,0824.1,4.99,0.00,29.8,28.9,00.0,38.7,31.7,20.7,0000.0,0006.20,0002.20,0001.68
2021-10-09 01:23:00,,0824.0,4.99,0.00,29.8,29.0,00.0,38.8,31.7,20.6,0000.0,0006.28,0002.24,0001.68
2021-10-09 01:24:00,,0823.9,5.01,0.00,29.9,29.0,00.0,38.8,31.7,20.3,0000.0,0005.80,0002.21,0001.67
2021-10-09 01:25:00,,0823.8,5.00,0.00,29.9,29.0,00.0,38.8,31.8,20.4,0000.0,0005.71,0002.20,0001.68
2021-10-09 01:26:00,,0823.8,5.00,0.00,29.9,29.1,00.0,38.8,31.8,20.2,0000.0,0005.76,0002.22,0001.70
2021-10-09 01:27:00,,0823.8,4.99,0.00,29.9,28.9,00.0,38.9,31.7,20.1,0000.0,0004.70,0002.22,0001.73
2021-10-09 01:28:00,,0823.8,5.00,0.00,29.9,27.0,00.0,38.8,31.2,20.3,0000.0,0004.31,0002.27,0001.78
2021-10-09 01:29:00,,0823.7,5.00,0.00,29.7,26.1,00.0,38.8,31.0,20.6,0000.0,0004.29,0002.36,0001.85
2021-10-09 01:30:00,,0823.7,4.99,0.00,29.6,26.3,00.0,38.8,31.0,20.5,0000.0,0004.14,0002.44,0001.89
2021-10-09 01:31:00,,0823.7,5.00,0.00,29.5,26.7,00.0,38.8,31.0,20.7,0000.0,0004.81,0002.47,0001.91
2021-10-09 01:32:00,,0823.7,5.00,0.00,29.5,27.1,00.0,38.7,31.1,20.6,0000.0,0004.71,0002.46,0001.93
2021-10-09 01:33:00,,0823.7,5.00,0.00,29.5,27.5,00.0,38.7,31.1,20.5,0000.0,0004.82,0002.44,0001.92
2021-10-09 01:34:00,,0823.7,4.99,0.00,29.5,27.7,00.0,38.7,31.2,20.9,0000.0,0004.84,0002.39,0001.91
2021-10-09 01:35:00,,0823.7,5.00,0.00,29.5,28.0,00.0,38.7,31.3,21.0,0000.0,0004.67,0002.37,0001.92
2021-10-09 01:36:00,,0823.7,5.00,0.00,29.5,28.1,00.0,38.7,31.3,21.0,0000.0,0004.70,0002.38,0001.92
2021-10-09 01:37:00,,0823.8,5.00,0.00,29.6,28.2,00.0,38.7,31.3,20.8,0000.0,0004.74,0002.38,0001.90
2021-10-09 01:38:00,,0823.8,5.00,0.00,29.6,28.3,00.0,38.7,31.3,20.8,0000.0,0005.21,0002.36,0001.85
2021-10-09 01:39:00,,0823.9,4.99,0.00,29.6,28.4,00.0,38.7,31.4,21.0,0000.0,0005.88,0002.31,0001.81
2021-10-09 01:40:00,,0823.9,5.00,0.00,29.6,28.5,00.0,38.7,31.4,20.8,0000.0,0005.92,0002.22,0001.73
2021-10-09 01:41:00,,0824.0,4.99,0.00,29.7,28.6,00.0,38.7,31.5,20.8,0000.0,0006.13,0002.18,0001.69
2021-10-09 01:42:00,,0824.1,5.00,0.00,29.7,28.7,00.0,38.7,31.5,20.6,0000.0,0006.44,0002.12,0001.66
2021-10-09 01:43:00,,0824.1,5.00,0.00,29.7,28.7,00.0,38.7,31.5,20.7,0000.0,0006.87,0002.11,0001.65
2021-10-09 01:44:00,,0824.1,5.01,0.00,29.7,28.8,00.0,38.7,31.5,20.8,0000.0,0006.83,0002.12,0001.65
2021-10-09 01:45:00,,0824.0,5.01,0.00,29.8,28.8,00.0,38.7,31.6,20.7,0000.0,0006.76,0002.11,0001.64
2021-10-09 01:46:00,,0824.0,5.00,0.00,29.8,28.9,00.0,38.8,31.6,20.4,0000.0,0006.81,0002.10,0001.63
2021-10-09 01:47:00,,0823.9,5.00,0.00,29.8,28.9,00.0,38.8,31.7,19.7,0000.0,0006.78,0002.07,0001.63
2021-10-09 01:48:00,,0823.9,4.98,0.00,29.9,28.9,00.0,38.8,31.7,19.4,0000.0,0006.82,0002.08,0001.61
2021-10-09 01:49:00,,0823.8,5.02,0.00,29.9,29.0,00.0,38.8,31.7,19.9,0000.0,0006.57,0002.10,0001.62
2021-10-09 01:50:00,,0823.7,4.99,0.00,29.9,29.0,00.0,38.8,31.7,19.6,0000.0,0005.91,0002.08,0001.61
2021-10-09 01:51:00,,0823.7,5.00,0.00,29.9,29.0,00.0,38.9,31.7,19.5,0000.0,0006.09,0002.07,0001.60
2021-10-09 01:52:00,,0823.7,5.00,0.00,29.9,29.1,00.0,38.9,31.8,19.3,0000.0,0005.93,0002.04,0001.58
2021-10-09 01:53:00,,0823.6,5.01,0.00,30.0,29.1,00.0,38.9,31.8,19.2,0000.0,0004.92,0002.08,0001.58
2021-10-09 01:54:00,,0823.5,5.00,0.00,30.0,28.4,00.0,38.9,31.6,19.3,0000.0,0004.67,0002.11,0001.58
2021-10-09 01:55:00,,0823.4,5.00,0.00,29.8,26.5,00.0,38.9,31.1,19.5,0000.0,0004.54,0002.10,0001.58
2021-10-09 01:56:00,,0823.4,5.00,0.00,29.7,26.2,00.0,38.9,31.0,19.7,0000.0,0005.76,0002.11,0001.59
2021-10-09 01:57:00,,0823.4,5.00,0.00,29.6,26.5,00.0,38.8,31.0,19.7,0000.0,0006.84,0002.13,0001.59
2021-10-09 01:58:00,,0823.3,4.99,0.00,29.5,26.9,00.0,38.8,31.1,19.5,0000.0,0006.93,0002.18,0001.59
2021-10-09 01:59:00,,0823.3,5.01,0.00,29.5,27.3,00.0,38.7,31.1,19.4,0000.0,0006.86,0002.17,0001.60
